User: anonymous   Login
Location: Montague
(41.3030°N, 74.7940°W)
Time: 09:27:28
(UTC-04:00)
Language:

Cosmos 1461 - Orbit

View from above orbital plane
View from above orbital plane
View from above satellite
View from above satellite

Ground track
Ground track

The orbit data is extracted from the following two-line orbital elements,

1 14064U 83044A   16272.82717939  .00001771  00000-0  16944-3 0  9991
2 14064  65.0031  13.1892 0095588 158.6116 201.9037 14.93240182684328
Epoch (UTC): 28 September 2016 19:51:08
Eccentricity: 0.0095588
inclination: 65.0031°
perigee height: 521 km
apogee height: 654 km
right ascension of ascending node: 13.1892°
argument of perigee: 158.6116°
revolutions per day: 14.93240182
mean anomaly at epoch: 201.9037°
orbit number at epoch: 68432

The dashed part of the orbit path shows where the satellite is in the earth's shadow,  

DLR